Hourly Data Report for August 02, 2020

LYTTON RCS
BRITISH COLUMBIA
Current Station Operator: ECCC - MSC

50°13'28.000" N
121°34'55.000" W
225.00 m
1114746
71765
VLY

Download Data

Hourly Data (August 2020)
Hourly Data Report for August 2, 2020
TIME Temp Definition
°C
Dew Point Definition
°C
Rel Hum Definition
%
Wind Dir Definition
10's deg

Wind Spd Definition
km/h
Visibility Definition
km
Stn Press Definition
kPa
Hmdx Definition


Wind Chill Definition


Weather Definition


00:00 22.7 12.1 51 18 34   98.73 25   LegendNANA
01:00 21.9 12.0 53 18 29   98.73     LegendNANA
02:00 21.1 12.2 57 19 27   98.78     LegendNANA
03:00 20.1 12.0 60 18 26   98.80     LegendNANA
04:00 19.7 12.1 61 18 28   98.85     LegendNANA
05:00 19.2 12.0 63 18 21   98.88     LegendNANA
06:00 18.7 11.9 64 18 15   98.88     LegendNANA
07:00 19.1 12.1 64 17 18   98.87     LegendNANA
08:00 21.6 11.4 52 18 25   98.81     LegendNANA
09:00 23.6 10.7 44 18 28   98.72 25   LegendNANA
10:00 25.4 10.0 38 18 37   98.62 27   LegendNANA
11:00 27.4 10.1 34 18 37   98.49 29   LegendNANA
12:00 29.8 9.4 28 19 35   98.41 31   LegendNANA
13:00 31.3 8.1 24 17 41   98.38 32   LegendNANA
14:00 30.6 7.6 24 18 42   98.37 31   LegendNANA
15:00 31.0 7.7 23 17 43   98.43 31   LegendNANA
16:00 29.8 7.4 25 17 44   98.45 30   LegendNANA
17:00 28.3 7.7 27 18 35   98.47 29   LegendNANA
18:00 27.2 7.6 29 18 39   98.49 27   LegendNANA
19:00 26.5 7.2 29 18 32   98.49 27   LegendNANA
20:00 25.4 7.9 33 18 28   98.56 26   LegendNANA
21:00 24.4 8.8 37 19 19   98.67 25   LegendNANA
22:00 24.2 8.7 37 19 23   98.70 25   LegendNANA
23:00 23.4 9.1 40 19 23   98.74     LegendNANA

Notes on Data Quality.

Legend

  • E = Estimated
  • M = Missing
  • NA = Not Available*
  • [empty] = Indicates an unobserved value
Date modified: